Retour au catalogue

SPACENET 4 R/B

PAM-D

ActifGTO
NORAD 21229·ROCKET BODY·🇺🇸 United States

Lancé Apr 13, 1991 depuis Cape Canaveral Space Force Station

Loading…

TLE

VieillissantSource: Space-Track

Époque: Sep 14, 2026, 13:24 UTC

1 21229U 91028C   26257.55891764 -.00000151  00000-0  00000-0 0  9991
2 21229  21.9722 253.1606 6894291 284.0761 320.5323  2.19703936284250

Suivez SPACENET 4 R/B en temps réel avec AllMySat

Download on the App Store